Location: Celina Division
(33.3022°N, 96.7580°W)
Time: 05:23:52
(UTC+00:00)

H-2A R/B (2) - Pass Details

Date: 30 June 2022
Orbit: 426 x 34397 km, 28.9° (Epoch: 11 August)

Event Time Altitude Azimuth Distance (km) Brightness Sun altitude
Exits shadow 07:52:32 11° 181° (S) 18,742 8.5 -30.3°
Maximum altitude 16:24:01 69° 167° (SSE) 6,285 8.0 60.4°
Drops below altitude 10° 16:40:08 10° 87° (E) 4,679 6.6 63.7°
Sets 16:42:03 0° 84° (E) 5,065 6.6 64.1°
